Location: Ash Observatory
(39.7321°N, 75.2004°W)
Time: 23:38:15
(UTC-04:00)

ISS - Pass Details

Date: 25 May 2019
Orbit: 408 x 418 km, 51.6° (Epoch: 18 June)

Event Time Altitude Azimuth Distance (km) Brightness Sun altitude
Rises 00:25:16 0° 314° (NW) 2,362 0.8 -28.9°
Reaches altitude 10° 00:27:41 10° 330° (NNW) 1,499 -0.2 -29.0°
Enters shadow 00:29:00 17° 349° (N) 1,130 -0.8 -29.0°
